• en France
  • Liste des pays
  • À 7 jours
  • Température de l'eau
  • Carte satellitaire
  • Carte météo
  • Widgets météo
  • user-avatar
    Se connecter

    Météo par heure à Bucaramanga

    Ce jour, 13 Novembre, Mardi

    Heure Température Précipitation Vent Pression Humidité
    00:00 +23°C° 0.9 mm 1 m/s 672 mmHg 88%
    01:00 +22°C° 0.9 mm 1 m/s 671 mmHg 89%
    02:00 +22°C° 0.9 mm 1 m/s 671 mmHg 89%
    03:00 +22°C° 0.9 mm 1 m/s 671 mmHg 89%
    04:00 +22°C° 0.9 mm 1 m/s 671 mmHg 89%
    05:00 +22°C° 0.5 mm 1 m/s 672 mmHg 88%
    06:00 +22°C° 0.5 mm 1 m/s 672 mmHg 87%
    07:00 +23°C° 0.5 mm 1 m/s 673 mmHg 86%
    08:00 +24°C° 0.1 mm 1 m/s 673 mmHg 81%
    09:00 +26°C° 0.1 mm 1 m/s 673 mmHg 76%
    10:00 +27°C° 0.1 mm 1 m/s 674 mmHg 71%
    11:00 +27°C° 0.1 mm 1 m/s 673 mmHg 71%
    12:00 +28°C° 0.1 mm 1 m/s 673 mmHg 70%
    13:00 +28°C° 0.1 mm 1 m/s 672 mmHg 70%
    14:00 +27°C° 0.3 mm 1 m/s 671 mmHg 73%
    15:00 +27°C° 0.3 mm 1 m/s 671 mmHg 77%
    16:00 +26°C° 0.3 mm 1 m/s 670 mmHg 80%
    17:00 +25°C° 0.4 mm 1 m/s 671 mmHg 83%
    18:00 +24°C° 0.4 mm 1 m/s 671 mmHg 85%
    19:00 +22°C° 0.4 mm 0 m/s 671 mmHg 88%
    20:00 +21°C° 0.6 mm 0 m/s 672 mmHg 87%
    21:00 +21°C° 0.6 mm 0 m/s 672 mmHg 87%
    22:00 +21°C° 0.6 mm 0 m/s 673 mmHg 86%
    23:00 +21°C° 0.6 mm 0 m/s 672 mmHg 87%

    Demain, 14 Novembre, Mercredi

    Heure Température Précipitation Vent Pression Humidité
    00:00 +20°C° 0.6 mm 0 m/s 672 mmHg 88%
    01:00 +20°C° 0.6 mm 0 m/s 672 mmHg 88%
    02:00 +20°C° 0.9 mm 0 m/s 672 mmHg 89%
    03:00 +20°C° 0.9 mm 0 m/s 671 mmHg 89%
    04:00 +20°C° 0.9 mm 0 m/s 671 mmHg 89%
    05:00 +20°C° 0.6 mm 0 m/s 672 mmHg 88%
    06:00 +21°C° 0.6 mm 0 m/s 672 mmHg 87%
    07:00 +21°C° 0.6 mm 0 m/s 673 mmHg 86%
    08:00 +25°C° 0.1 mm 1 m/s 673 mmHg 80%
    09:00 +27°C° 0.1 mm 1 m/s 674 mmHg 73%
    10:00 +28°C° 0.1 mm 1 m/s 674 mmHg 67%
    11:00 +28°C° 0.2 mm 1 m/s 673 mmHg 67%
    12:00 +29°C° 0.2 mm 1 m/s 672 mmHg 67%
    13:00 +29°C° 0.2 mm 1 m/s 672 mmHg 67%
    14:00 +29°C° 0.4 mm 1 m/s 671 mmHg 69%
    15:00 +28°C° 0.4 mm 1 m/s 670 mmHg 71%
    16:00 +28°C° 0.4 mm 1 m/s 670 mmHg 73%
    17:00 +26°C° 0.5 mm 1 m/s 670 mmHg 78%
    18:00 +25°C° 0.5 mm 1 m/s 670 mmHg 83%
    19:00 +23°C° 0.5 mm 1 m/s 671 mmHg 89%
    20:00 +23°C° 0.7 mm 1 m/s 671 mmHg 89%
    21:00 +23°C° 0.7 mm 1 m/s 672 mmHg 90%
    22:00 +21°C° 0.7 mm 0 m/s 672 mmHg 90%
    23:00 +20°C° 0.9 mm 0 m/s 672 mmHg 91%

    Après-demain, 15 Novembre, Jeudi

    Heure Température Précipitation Vent Pression Humidité
    00:00 +20°C° 0.9 mm 0 m/s 672 mmHg 91%
    01:00 +20°C° 0.9 mm 0 m/s 671 mmHg 91%
    02:00 +20°C° 0.8 mm 0 m/s 671 mmHg 91%
    03:00 +20°C° 0.8 mm 0 m/s 671 mmHg 91%
    04:00 +20°C° 0.8 mm 0 m/s 671 mmHg 90%
    05:00 +20°C° 0.2 mm 0 m/s 671 mmHg 89%
    06:00 +21°C° 0.2 mm 0 m/s 672 mmHg 87%
    07:00 +21°C° 0.2 mm 0 m/s 672 mmHg 85%
    08:00 +25°C° 0.1 mm 1 m/s 673 mmHg 77%
    09:00 +27°C° 0.1 mm 1 m/s 673 mmHg 69%
    10:00 +29°C° 0.1 mm 1 m/s 674 mmHg 61%
    11:00 +29°C° 0.1 mm 1 m/s 673 mmHg 62%
    12:00 +29°C° 0.1 mm 1 m/s 672 mmHg 63%
    13:00 +29°C° 0.1 mm 1 m/s 671 mmHg 64%
    14:00 +29°C° 0.4 mm 1 m/s 671 mmHg 67%
    15:00 +28°C° 0.4 mm 1 m/s 670 mmHg 70%
    16:00 +28°C° 0.4 mm 1 m/s 670 mmHg 74%
    17:00 +26°C° 0.5 mm 1 m/s 670 mmHg 78%
    18:00 +25°C° 0.5 mm 1 m/s 671 mmHg 83%
    19:00 +23°C° 0.5 mm 1 m/s 671 mmHg 88%
    20:00 +23°C° 0.4 mm 1 m/s 671 mmHg 88%
    21:00 +23°C° 0.4 mm 1 m/s 672 mmHg 87%
    22:00 +23°C° 0.4 mm 1 m/s 672 mmHg 86%
    23:00 +22°C° 1 mm 1 m/s 672 mmHg 87%

    16 Novembre, Vendredi

    Heure Température Précipitation Vent Pression Humidité
    00:00 +22°C° 1 mm 1 m/s 672 mmHg 88%
    01:00 +22°C° 1 mm 1 m/s 671 mmHg 89%
    02:00 +21°C° 0.9 mm 1 m/s 671 mmHg 88%
    03:00 +21°C° 0.9 mm 1 m/s 671 mmHg 87%
    04:00 +21°C° 0.9 mm 1 m/s 671 mmHg 87%
    05:00 +22°C° 0.3 mm 1 m/s 672 mmHg 85%
    06:00 +22°C° 0.3 mm 1 m/s 672 mmHg 84%
    07:00 +23°C° 0.3 mm 1 m/s 673 mmHg 82%
    08:00 +25°C° 0 mm 1 m/s 673 mmHg 75%
    09:00 +27°C° 0 mm 1 m/s 674 mmHg 68%
    10:00 +29°C° 0 mm 1 m/s 674 mmHg 61%
    11:00 +29°C° 0.1 mm 1 m/s 673 mmHg 62%
    12:00 +29°C° 0.1 mm 1 m/s 672 mmHg 63%
    13:00 +29°C° 0.1 mm 1 m/s 671 mmHg 63%
    14:00 +29°C° 0.5 mm 1 m/s 671 mmHg 68%
    15:00 +28°C° 0.5 mm 1 m/s 670 mmHg 72%
    16:00 +28°C° 0.5 mm 1 m/s 670 mmHg 77%
    17:00 +26°C° 0.6 mm 1 m/s 670 mmHg 81%
    18:00 +25°C° 0.6 mm 1 m/s 671 mmHg 85%
    19:00 +23°C° 0.6 mm 1 m/s 671 mmHg 89%
    20:00 +23°C° 0.6 mm 1 m/s 671 mmHg 89%
    21:00 +23°C° 0.6 mm 1 m/s 672 mmHg 88%
    22:00 +23°C° 0.6 mm 1 m/s 672 mmHg 88%
    23:00 +22°C° 0.9 mm 1 m/s 672 mmHg 89%

    17 Novembre, Samedi

    Heure Température Précipitation Vent Pression Humidité
    00:00 +22°C° 0.9 mm 1 m/s 672 mmHg 90%
    01:00 +22°C° 0.9 mm 1 m/s 671 mmHg 90%
    02:00 +22°C° 0.9 mm 1 m/s 671 mmHg 90%
    03:00 +21°C° 0.9 mm 1 m/s 671 mmHg 89%
    04:00 +21°C° 0.9 mm 1 m/s 671 mmHg 89%
    05:00 +22°C° 0.4 mm 1 m/s 672 mmHg 88%
    06:00 +22°C° 0.4 mm 1 m/s 672 mmHg 86%
    07:00 +23°C° 0.4 mm 1 m/s 673 mmHg 85%
    08:00 +25°C° 0.1 mm 1 m/s 673 mmHg 79%
    09:00 +26°C° 0.1 mm 1 m/s 674 mmHg 73%
    10:00 +28°C° 0.1 mm 1 m/s 674 mmHg 67%
    11:00 +28°C° 0.2 mm 1 m/s 673 mmHg 67%
    12:00 +29°C° 0.2 mm 1 m/s 672 mmHg 67%
    13:00 +29°C° 0.2 mm 1 m/s 671 mmHg 68%
    14:00 +28°C° 0.6 mm 1 m/s 671 mmHg 71%
    15:00 +28°C° 0.6 mm 1 m/s 670 mmHg 74%
    16:00 +27°C° 0.6 mm 1 m/s 670 mmHg 78%
    17:00 +26°C° 0.7 mm 1 m/s 670 mmHg 82%
    18:00 +25°C° 0.7 mm 1 m/s 671 mmHg 86%
    19:00 +24°C° 0.7 mm 1 m/s 671 mmHg 90%
    20:00 +23°C° 0.7 mm 1 m/s 671 mmHg 90%
    21:00 +23°C° 0.7 mm 1 m/s 672 mmHg 90%
    22:00 +23°C° 0.7 mm 1 m/s 672 mmHg 90%
    23:00 +23°C° 0.8 mm 1 m/s 672 mmHg 91%

    18 Novembre, Dimanche

    Heure Température Précipitation Vent Pression Humidité
    00:00 +22°C° 0.8 mm 1 m/s 671 mmHg 91%
    01:00 +22°C° 0.8 mm 1 m/s 671 mmHg 91%
    02:00 +22°C° 1 mm 1 m/s 671 mmHg 91%
    03:00 +22°C° 1 mm 1 m/s 671 mmHg 91%
    04:00 +22°C° 1 mm 1 m/s 671 mmHg 90%
    05:00 +22°C° 0.3 mm 1 m/s 671 mmHg 89%
    06:00 +21°C° 0.3 mm 0 m/s 672 mmHg 87%
    07:00 +21°C° 0.3 mm 0 m/s 672 mmHg 86%
    08:00 +25°C° 0 mm 1 m/s 673 mmHg 79%
    09:00 +27°C° 0 mm 1 m/s 673 mmHg 73%
    10:00 +28°C° 0 mm 1 m/s 673 mmHg 66%
    11:00 +28°C° 0.2 mm 1 m/s 673 mmHg 68%
    12:00 +29°C° 0.2 mm 1 m/s 672 mmHg 69%
    13:00 +29°C° 0.2 mm 1 m/s 671 mmHg 70%
    14:00 +28°C° 0.7 mm 1 m/s 670 mmHg 73%
    15:00 +28°C° 0.7 mm 1 m/s 670 mmHg 76%
    16:00 +27°C° 0.7 mm 1 m/s 670 mmHg 79%
    17:00 +26°C° 1 mm 1 m/s 670 mmHg 83%
    18:00 +25°C° 1 mm 1 m/s 670 mmHg 86%
    19:00 +22°C° 1 mm 0 m/s 671 mmHg 90%
    20:00 +23°C° 1.3 mm 1 m/s 671 mmHg 90%
    21:00 +23°C° 1.3 mm 1 m/s 671 mmHg 91%
    22:00 +23°C° 1.3 mm 1 m/s 672 mmHg 91%
    23:00 +23°C° 1.4 mm 1 m/s 671 mmHg 92%
    Voir plus